| time (UTC) | temp F | wind direction | speed knots | gust knots | rain 1hr in | rain 24hr in | rain mn in | humidity % | barometer mb |
| 20260902220136 | 100 | 195 | 2.6 | 3.5 | 0.00 | 0.00 | 0.00 | 45 | 1015.1 |
| 20260902215636 | 101 | 110 | 1.7 | 5.2 | 0.00 | 0.00 | 0.00 | 45 | 1015.3 |
| 20260902215136 | 101 | 195 | 1.7 | 5.2 | 0.00 | 0.00 | 0.00 | 44 | 1015.2 |
| 20260902214636 | 101 | 214 | 1.7 | 4.3 | 0.00 | 0.00 | 0.00 | 46 | 1015.3 |
| 20260902214136 | 101 | 153 | 1.7 | 6.1 | 0.00 | 0.00 | 0.00 | 45 | 1015.3 |
| 20260902213636 | 101 | 69 | 1.7 | 5.2 | 0.00 | 0.00 | 0.00 | 45 | 1015.4 |
| 20260902213136 | 101 | 40 | 1.7 | 5.2 | 0.00 | 0.00 | 0.00 | 46 | 1015.3 |
| 20260902212636 | 100 | 218 | 2.6 | 6.1 | 0.00 | 0.00 | 0.00 | 46 | 1015.4 |
| 20260902212136 | 100 | 138 | 2.6 | 5.2 | 0.00 | 0.00 | 0.00 | 45 | 1015.3 |
| 20260902211636 | 100 | 73 | 1.7 | 3.5 | 0.00 | 0.00 | 0.00 | 46 | 1015.2 |
| 20260902211136 | 100 | 212 | 1.7 | 3.5 | 0.00 | 0.00 | 0.00 | 46 | 1015.3 |
| 20260902210636 | 99 | 1 | 1.7 | 5.2 | 0.00 | 0.00 | 0.00 | 47 | 1015.3 |
| 20260902210136 | 98 | 162 | 0.9 | 2.6 | 0.00 | 0.00 | 0.00 | 51 | 1015.4 |
| 20260902205636 | 98 | 172 | 0.9 | 3.5 | 0.00 | 0.00 | 0.00 | 48 | 1015.5 |
| 20260902205136 | 99 | 143 | 0.9 | 2.6 | 0.00 | 0.00 | 0.00 | 49 | 1015.5 |
| 20260902204636 | 99 | 103 | 1.7 | 4.3 | 0.00 | 0.00 | 0.00 | 49 | 1015.5 |
| 20260902204136 | 100 | 167 | 0.9 | 1.7 | 0.00 | 0.00 | 0.00 | 49 | 1015.6 |
| 20260902203636 | 98 | 18 | 0.0 | 1.7 | 0.00 | 0.00 | 0.00 | 51 | 1015.6 |
| 20260902203136 | 97 | 128 | 0.0 | 0.9 | 0.00 | 0.00 | 0.00 | 52 | 1015.6 |
| 20260902202636 | 97 | 139 | 0.9 | 1.7 | 0.00 | 0.00 | 0.00 | 52 | 1015.7 |
| 20260902202136 | 97 | 144 | 1.7 | 4.3 | 0.00 | 0.00 | 0.00 | 52 | 1015.7 |
| 20260902201636 | 97 | 165 | 1.7 | 4.3 | 0.00 | 0.00 | 0.00 | 51 | 1015.9 |
| 20260902201136 | 97 | 200 | 1.7 | 5.2 | 0.00 | 0.00 | 0.00 | 51 | 1015.9 |
| 20260902200636 | 98 | 136 | 1.7 | 4.3 | 0.00 | 0.00 | 0.00 | 51 | 1016.0 |
| 20260902200136 | 97 | 100 | 0.9 | 3.5 | 0.00 | 0.00 | 0.00 | 52 | 1016.1 |
| 20260902195636 | 97 | 103 | 0.9 | 2.6 | 0.00 | 0.00 | 0.00 | 51 | 1016.1 |
| 20260902195136 | 98 | 134 | 1.7 | 4.3 | 0.00 | 0.00 | 0.00 | 50 | 1016.2 |
| 20260902194636 | 99 | 151 | 1.7 | 4.3 | 0.00 | 0.00 | 0.00 | 49 | 1016.3 |
| 20260902194136 | 98 | 52 | 0.9 | 3.5 | 0.00 | 0.00 | 0.00 | 50 | 1016.4 |
| 20260902193636 | 97 | 89 | 0.9 | 2.6 | 0.00 | 0.00 | 0.00 | 51 | 1016.4 |
| 20260902193136 | 97 | 99 | 1.7 | 2.6 | 0.00 | 0.00 | 0.00 | 50 | 1016.6 |
| 20260902192636 | 98 | 186 | 1.7 | 4.3 | 0.00 | 0.00 | 0.00 | 50 | 1016.6 |
| 20260902192136 | 98 | 103 | 0.9 | 3.5 | 0.00 | 0.00 | 0.00 | 51 | 1016.7 |
| 20260902191636 | 98 | 193 | 1.7 | 3.5 | 0.00 | 0.00 | 0.00 | 49 | 1016.8 |
| 20260902191136 | 98 | 167 | 2.6 | 7.0 | 0.00 | 0.00 | 0.00 | 49 | 1016.8 |
| 20260902190636 | 98 | 82 | 1.7 | 6.1 | 0.00 | 0.00 | 0.00 | 50 | 1017.0 |
| 20260902190136 | 97 | 224 | 1.7 | 3.5 | 0.00 | 0.00 | 0.00 | 52 | 1017.1 |
| 20260902185636 | 96 | 236 | 2.6 | 3.5 | 0.00 | 0.00 | 0.00 | 53 | 1017.1 |
| 20260902185136 | 97 | 232 | 3.5 | 7.0 | 0.00 | 0.00 | 0.00 | 52 | 1017.3 |
| 20260902184636 | 98 | 238 | 2.6 | 5.2 | 0.00 | 0.00 | 0.00 | 50 | 1017.3 |
| 20260902184136 | 99 | 194 | 1.7 | 6.1 | 0.00 | 0.00 | 0.00 | 50 | 1017.4 |
| 20260902183636 | 98 | 164 | 2.6 | 5.2 | 0.00 | 0.00 | 0.00 | 50 | 1017.3 |
| 20260902183136 | 98 | 96 | 1.7 | 5.2 | 0.00 | 0.00 | 0.00 | 52 | 1017.4 |
| 20260902182636 | 99 | 108 | 0.9 | 3.5 | 0.00 | 0.00 | 0.00 | 52 | 1017.4 |
| 20260902182136 | 98 | 243 | 0.9 | 2.6 | 0.00 | 0.00 | 0.00 | 55 | 1017.5 |
| 20260902181636 | 97 | 65 | 0.9 | 3.5 | 0.00 | 0.00 | 0.00 | 55 | 1017.6 |
| 20260902181136 | 97 | 211 | 0.9 | 1.7 | 0.00 | 0.00 | 0.00 | 54 | 1017.7 |
| 20260902180636 | 97 | 225 | 0.9 | 2.6 | 0.00 | 0.00 | 0.00 | 55 | 1017.7 |
| 20260902180136 | 96 | 27 | 0.9 | 3.5 | 0.00 | 0.00 | 0.00 | 59 | 1017.8 |
| 20260902175636 | 95 | 86 | 0.9 | 4.3 | 0.00 | 0.00 | 0.00 | 57 | 1017.9 |
| 20260902175136 | 95 | 155 | 0.9 | 3.5 | 0.00 | 0.00 | 0.00 | 57 | 1017.9 |
| 20260902174636 | 95 | 172 | 0.0 | 1.7 | 0.00 | 0.00 | 0.00 | 57 | 1018.0 |
| 20260902174136 | 95 | 182 | 0.9 | 1.7 | 0.00 | 0.00 | 0.00 | 57 | 1018.2 |
| 20260902173636 | 96 | 179 | 0.9 | 2.6 | 0.00 | 0.00 | 0.00 | 56 | 1018.3 |
| 20260902173136 | 96 | 179 | 0.0 | 2.6 | 0.00 | 0.00 | 0.00 | 56 | 1018.4 |
| 20260902172636 | 96 | 174 | 0.9 | 1.7 | 0.00 | 0.00 | 0.00 | 56 | 1018.4 |
| 20260902172136 | 96 | 153 | 1.7 | 3.5 | 0.00 | 0.00 | 0.00 | 56 | 1018.5 |
| 20260902171636 | 96 | 204 | 1.7 | 3.5 | 0.00 | 0.00 | 0.00 | 57 | 1018.5 |
| 20260902171136 | 96 | 250 | 1.7 | 5.2 | 0.00 | 0.00 | 0.00 | 56 | 1018.6 |
| 20260902170636 | 96 | 295 | 1.7 | 4.3 | 0.00 | 0.00 | 0.00 | 57 | 1018.6 |
| 20260902170136 | 96 | 234 | 2.6 | 6.1 | 0.00 | 0.00 | 0.00 | 55 | 1018.7 |
| 20260902165636 | 96 | 188 | 3.5 | 6.1 | 0.00 | 0.00 | 0.00 | 57 | 1018.7 |
| 20260902165136 | 95 | 214 | 3.5 | 6.1 | 0.00 | 0.00 | 0.00 | 59 | 1018.6 |
| 20260902164636 | 94 | 260 | 3.5 | 6.1 | 0.00 | 0.00 | 0.00 | 60 | 1018.8 |
| 20260902164136 | 94 | 235 | 2.6 | 4.3 | 0.00 | 0.00 | 0.00 | 60 | 1019.0 |
| 20260902163636 | 95 | 226 | 1.7 | 3.5 | 0.00 | 0.00 | 0.00 | 58 | 1018.9 |
| 20260902163136 | 95 | 148 | 2.6 | 3.5 | 0.00 | 0.00 | 0.00 | 59 | 1019.0 |
| 20260902162636 | 95 | 243 | 2.6 | 4.3 | 0.00 | 0.00 | 0.00 | 58 | 1018.9 |
| 20260902162136 | 96 | 205 | 1.7 | 7.0 | 0.00 | 0.00 | 0.00 | 58 | 1018.9 |
| 20260902161636 | 95 | 42 | 2.6 | 4.3 | 0.00 | 0.00 | 0.00 | 57 | 1018.8 |
| 20260902161136 | 95 | 160 | 2.6 | 4.3 | 0.00 | 0.00 | 0.00 | 59 | 1018.9 |
| 20260902160636 | 95 | 227 | 2.6 | 4.3 | 0.00 | 0.00 | 0.00 | 58 | 1019.0 |
| 20260902160136 | 95 | 180 | 2.6 | 4.3 | 0.00 | 0.00 | 0.00 | 58 | 1018.9 |
| 20260902155637 | 95 | 245 | 1.7 | 4.3 | 0.00 | 0.00 | 0.00 | 58 | 1019.1 |
| 20260902155136 | 95 | 219 | 0.9 | 3.5 | 0.00 | 0.00 | 0.00 | 60 | 1018.9 |
| 20260902154636 | 94 | 323 | 0.9 | 2.6 | 0.00 | 0.00 | 0.00 | 64 | 1018.9 |
| 20260902154136 | 94 | 266 | 1.7 | 2.6 | 0.00 | 0.00 | 0.00 | 66 | 1019.0 |
| 20260902153636 | 93 | 208 | 1.7 | 3.5 | 0.00 | 0.00 | 0.00 | 65 | 1019.1 |
| 20260902153136 | 93 | 232 | 1.7 | 2.6 | 0.00 | 0.00 | 0.00 | 66 | 1019.2 |
| 20260902152636 | 92 | 230 | 1.7 | 2.6 | 0.00 | 0.00 | 0.00 | 69 | 1019.2 |
| 20260902152136 | 92 | 189 | 1.7 | 5.2 | 0.00 | 0.00 | 0.00 | 68 | 1019.3 |
| 20260902151636 | 93 | 340 | 0.9 | 1.7 | 0.00 | 0.00 | 0.00 | 68 | 1019.1 |
| 20260902151136 | 93 | 352 | 0.9 | 1.7 | 0.00 | 0.00 | 0.00 | 69 | 1019.1 |
| 20260902150636 | 92 | 110 | 0.9 | 1.7 | 0.00 | 0.00 | 0.00 | 72 | 1019.0 |
| 20260902150136 | 92 | 105 | 0.9 | 2.6 | 0.00 | 0.00 | 0.00 | 70 | 1019.1 |
| 20260902145636 | 92 | 352 | 0.9 | 1.7 | 0.00 | 0.00 | 0.00 | 71 | 1019.1 |
| 20260902145136 | 91 | 236 | 0.9 | 1.7 | 0.00 | 0.00 | 0.00 | 71 | 1019.0 |
| 20260902144636 | 91 | 313 | 0.0 | 1.7 | 0.00 | 0.00 | 0.00 | 73 | 1019.0 |
| 20260902144136 | 90 | 308 | 0.0 | 1.7 | 0.00 | 0.00 | 0.00 | 72 | 1018.9 |
| 20260902143636 | 90 | 332 | 0.9 | 0.9 | 0.00 | 0.00 | 0.00 | 74 | 1019.1 |
| 20260902143136 | 89 | 334 | 0.9 | 1.7 | 0.00 | 0.00 | 0.00 | 75 | 1019.1 |
| 20260902142636 | 89 | 352 | 0.0 | 1.7 | 0.00 | 0.00 | 0.00 | 75 | 1019.2 |
| 20260902142136 | 88 | 338 | 0.0 | 1.7 | 0.00 | 0.00 | 0.00 | 78 | 1019.1 |
| 20260902141636 | 87 | 343 | 0.9 | 2.6 | 0.00 | 0.00 | 0.00 | 79 | 1019.0 |
| 20260902141136 | 86 | 250 | 0.9 | 1.7 | 0.00 | 0.00 | 0.00 | 79 | 1019.0 |
| 20260902140636 | 85 | 245 | 0.9 | 1.7 | 0.00 | 0.00 | 0.00 | 80 | 1018.9 |
| 20260902140136 | 85 | 271 | 0.9 | 4.3 | 0.00 | 0.00 | 0.00 | 80 | 1018.8 |
| 20260902135636 | 84 | 240 | 0.9 | 2.6 | 0.00 | 0.00 | 0.00 | 81 | 1019.0 |
| 20260902135136 | 84 | 238 | 1.7 | 3.5 | 0.00 | 0.00 | 0.00 | 81 | 1019.1 |
| 20260902134636 | 83 | 251 | 1.7 | 3.5 | 0.00 | 0.00 | 0.00 | 82 | 1019.2 |
| 20260902134136 | 82 | 240 | 1.7 | 4.3 | 0.00 | 0.00 | 0.00 | 83 | 1019.3 |
| 20260902133636 | 82 | 234 | 1.7 | 3.5 | 0.00 | 0.00 | 0.00 | 84 | 1019.2 |
| 20260902133136 | 81 | 225 | 1.7 | 3.5 | 0.00 | 0.00 | 0.00 | 84 | 1019.2 |
| 20260902132636 | 81 | 213 | 1.7 | 2.6 | 0.00 | 0.00 | 0.00 | 85 | 1019.2 |
| 20260902132136 | 80 | 207 | 1.7 | 2.6 | 0.00 | 0.00 | 0.00 | 86 | 1019.3 |
| 20260902131636 | 79 | 177 | 0.9 | 2.6 | 0.00 | 0.00 | 0.00 | 86 | 1019.2 |
| 20260902131136 | 79 | 177 | 0.9 | 2.6 | 0.00 | 0.00 | 0.00 | 86 | 1019.1 |
| 20260902130636 | 78 | 176 | 0.0 | 1.7 | 0.00 | 0.00 | 0.00 | 88 | 1019.2 |
| 20260902130136 | 77 | 164 | 0.0 | 1.7 | 0.00 | 0.00 | 0.00 | 89 | 1019.1 |
| 20260902125636 | 76 | 164 | 0.9 | 1.7 | 0.00 | 0.00 | 0.00 | 91 | 1019.1 |
| 20260902125136 | 75 | 156 | 0.9 | 2.6 | 0.00 | 0.00 | 0.00 | 92 | 1019.1 |
| 20260902124636 | 74 | 157 | 0.9 | 2.6 | 0.00 | 0.00 | 0.00 | 93 | 1018.9 |
| 20260902124136 | 74 | 153 | 0.9 | 1.7 | 0.00 | 0.00 | 0.00 | 93 | 1018.9 |
| 20260902123637 | 74 | 150 | 0.0 | 1.7 | 0.00 | 0.00 | 0.00 | 93 | 1018.8 |
| 20260902123136 | 74 | 150 | 0.0 | 1.7 | 0.00 | 0.00 | 0.00 | 93 | 1018.8 |
| 20260902122637 | 74 | 150 | 0.0 | 0.0 | 0.00 | 0.00 | 0.00 | 93 | 1018.7 |
| 20260902122137 | 73 | 150 | 0.0 | 0.0 | 0.00 | 0.00 | 0.00 | 94 | 1018.7 |
| 20260902121637 | 73 | 150 | 0.0 | 0.0 | 0.00 | 0.00 | 0.00 | 94 | 1018.7 |
| 20260902121137 | 73 | 150 | 0.0 | 0.0 | 0.00 | 0.00 | 0.00 | 94 | 1018.7 |
| 20260902120637 | 73 | 150 | 0.0 | 0.0 | 0.00 | 0.00 | 0.00 | 93 | 1018.5 |
| 20260902120137 | 73 | 150 | 0.0 | 0.0 | 0.00 | 0.00 | 0.00 | 93 | 1018.5 |
| 20260902115637 | 73 | 150 | 0.0 | 0.0 | 0.00 | 0.00 | 0.00 | 93 | 1018.4 |
| 20260902115137 | 73 | 150 | 0.0 | 0.0 | 0.00 | 0.00 | 0.00 | 93 | 1018.2 |
| 20260902114637 | 73 | 150 | 0.0 | 0.0 | 0.00 | 0.00 | 0.00 | 93 | 1018.2 |
| 20260902114137 | 73 | 150 | 0.0 | 0.0 | 0.00 | 0.00 | 0.00 | 93 | 1018.1 |
| 20260902113637 | 73 | 150 | 0.0 | 0.0 | 0.00 | 0.00 | 0.00 | 93 | 1018.0 |
| 20260902113137 | 73 | 150 | 0.0 | 0.0 | 0.00 | 0.00 | 0.00 | 93 | 1018.1 |
| 20260902112637 | 73 | 150 | 0.0 | 0.0 | 0.00 | 0.00 | 0.00 | 93 | 1018.1 |
| 20260902112137 | 73 | 150 | 0.0 | 0.0 | 0.00 | 0.00 | 0.00 | 93 | 1018.1 |
| 20260902111637 | 73 | 150 | 0.0 | 0.0 | 0.00 | 0.00 | 0.00 | 93 | 1018.0 |
| 20260902111137 | 73 | 150 | 0.0 | 0.0 | 0.00 | 0.00 | 0.00 | 93 | 1018.0 |
| 20260902110637 | 73 | 150 | 0.0 | 0.0 | 0.00 | 0.00 | 0.00 | 93 | 1017.9 |
| 20260902110137 | 73 | 150 | 0.0 | 0.0 | 0.00 | 0.00 | 0.00 | 92 | 1017.8 |
| 20260902105637 | 74 | 150 | 0.0 | 0.0 | 0.00 | 0.00 | 0.00 | 92 | 1017.7 |
| 20260902105137 | 74 | 150 | 0.0 | 0.9 | 0.00 | 0.00 | 0.00 | 92 | 1017.6 |
| 20260902104637 | 74 | 150 | 0.0 | 0.0 | 0.00 | 0.00 | 0.00 | 92 | 1017.4 |
| 20260902104137 | 74 | 150 | 0.0 | 1.7 | 0.00 | 0.00 | 0.00 | 92 | 1017.5 |
| 20260902103637 | 74 | 139 | 0.0 | 0.0 | 0.00 | 0.00 | 0.00 | 92 | 1017.4 |
| 20260902103137 | 74 | 139 | 0.0 | 0.0 | 0.00 | 0.00 | 0.00 | 92 | 1017.5 |
| 20260902102637 | 74 | 139 | 0.0 | 0.0 | 0.00 | 0.00 | 0.00 | 92 | 1017.4 |
| 20260902102137 | 74 | 139 | 0.0 | 0.0 | 0.00 | 0.00 | 0.00 | 92 | 1017.3 |
| 20260902101637 | 74 | 139 | 0.0 | 0.0 | 0.00 | 0.00 | 0.00 | 92 | 1017.4 |
| 20260902101137 | 74 | 139 | 0.0 | 0.0 | 0.00 | 0.00 | 0.00 | 92 | 1017.4 |
| 20260902100637 | 74 | 139 | 0.0 | 0.0 | 0.00 | 0.00 | 0.00 | 92 | 1017.5 |
| 20260902100137 | 74 | 139 | 0.0 | 0.0 | 0.00 | 0.00 | 0.00 | 92 | 1017.4 |
| 20260902095637 | 74 | 139 | 0.0 | 0.0 | 0.00 | 0.00 | 0.00 | 92 | 1017.4 |
| 20260902095137 | 74 | 139 | 0.0 | 0.0 | 0.00 | 0.00 | 0.00 | 92 | 1017.3 |
| 20260902094637 | 74 | 139 | 0.0 | 0.0 | 0.00 | 0.00 | 0.00 | 92 | 1017.3 |
| 20260902094137 | 74 | 139 | 0.0 | 0.0 | 0.00 | 0.00 | 0.00 | 92 | 1017.5 |
| 20260902093637 | 74 | 139 | 0.9 | 0.0 | 0.00 | 0.00 | 0.00 | 92 | 1017.4 |
| 20260902093137 | 74 | 139 | 0.9 | 1.7 | 0.00 | 0.00 | 0.00 | 92 | 1017.4 |
| 20260902092637 | 74 | 136 | 0.9 | 2.6 | 0.00 | 0.00 | 0.00 | 91 | 1017.4 |
| 20260902092137 | 75 | 132 | 0.0 | 0.0 | 0.00 | 0.00 | 0.00 | 89 | 1017.3 |
| 20260902091637 | 75 | 132 | 0.0 | 0.0 | 0.00 | 0.00 | 0.00 | 89 | 1017.4 |
| 20260902091137 | 76 | 132 | 0.0 | 0.0 | 0.00 | 0.00 | 0.00 | 89 | 1017.3 |
| 20260902090637 | 76 | 132 | 0.0 | 0.0 | 0.00 | 0.00 | 0.00 | 88 | 1017.2 |
| 20260902090137 | 76 | 132 | 0.0 | 0.0 | 0.00 | 0.00 | 0.00 | 88 | 1017.3 |
| 20260902085637 | 76 | 132 | 0.0 | 0.0 | 0.00 | 0.00 | 0.00 | 88 | 1017.2 |
| 20260902085137 | 77 | 132 | 0.0 | 0.9 | 0.00 | 0.00 | 0.00 | 87 | 1017.1 |
| 20260902084637 | 77 | 132 | 0.0 | 0.9 | 0.00 | 0.00 | 0.00 | 87 | 1017.1 |
| 20260902084137 | 77 | 132 | 0.0 | 0.9 | 0.00 | 0.00 | 0.00 | 86 | 1017.0 |
| 20260902083637 | 77 | 132 | 0.0 | 1.7 | 0.00 | 0.00 | 0.00 | 87 | 1016.9 |
| 20260902083137 | 77 | 132 | 0.0 | 1.7 | 0.00 | 0.00 | 0.00 | 87 | 1017.0 |
| 20260902082637 | 76 | 135 | 0.0 | 1.7 | 0.00 | 0.00 | 0.00 | 88 | 1017.0 |
| 20260902082137 | 76 | 134 | 0.0 | 1.7 | 0.00 | 0.00 | 0.00 | 88 | 1017.0 |
| 20260902081637 | 76 | 133 | 0.0 | 1.7 | 0.00 | 0.00 | 0.00 | 88 | 1016.9 |
| 20260902081137 | 76 | 158 | 0.0 | 0.0 | 0.00 | 0.00 | 0.00 | 88 | 1016.8 |
| 20260902080637 | 77 | 158 | 0.0 | 0.0 | 0.00 | 0.00 | 0.00 | 87 | 1016.9 |
| 20260902080137 | 77 | 158 | 0.0 | 0.0 | 0.00 | 0.00 | 0.00 | 86 | 1017.0 |
| 20260902075637 | 77 | 158 | 0.0 | 0.9 | 0.00 | 0.00 | 0.00 | 85 | 1016.9 |
| 20260902075137 | 77 | 158 | 0.0 | 0.9 | 0.00 | 0.00 | 0.00 | 85 | 1016.9 |
| 20260902074637 | 78 | 158 | 0.0 | 1.7 | 0.00 | 0.00 | 0.00 | 84 | 1017.0 |
| 20260902074137 | 78 | 158 | 0.0 | 1.7 | 0.00 | 0.00 | 0.00 | 84 | 1017.1 |
| 20260902073637 | 78 | 158 | 0.0 | 0.9 | 0.00 | 0.00 | 0.00 | 84 | 1017.1 |
| 20260902073137 | 78 | 158 | 0.0 | 1.7 | 0.00 | 0.00 | 0.00 | 84 | 1017.1 |
| 20260902072637 | 78 | 159 | 0.0 | 0.9 | 0.00 | 0.00 | 0.00 | 85 | 1017.1 |
| 20260902072137 | 78 | 159 | 0.0 | 0.9 | 0.00 | 0.00 | 0.00 | 84 | 1017.0 |
| 20260902071637 | 78 | 159 | 0.0 | 0.9 | 0.00 | 0.00 | 0.00 | 84 | 1017.0 |
| 20260902071137 | 78 | 159 | 0.0 | 0.9 | 0.00 | 0.00 | 0.00 | 84 | 1017.1 |
| 20260902070637 | 78 | 159 | 0.9 | 1.7 | 0.00 | 0.00 | 0.00 | 84 | 1017.1 |
| 20260902070137 | 78 | 159 | 0.0 | 1.7 | 0.00 | 0.00 | 0.00 | 84 | 1017.1 |
| 20260902065637 | 78 | 159 | 0.0 | 0.9 | 0.00 | 0.00 | 0.00 | 84 | 1016.9 |
| 20260902065137 | 79 | 160 | 0.0 | 0.9 | 0.00 | 0.00 | 0.00 | 84 | 1017.0 |
| 20260902064637 | 79 | 160 | 0.0 | 0.9 | 0.00 | 0.00 | 0.00 | 83 | 1017.1 |
| 20260902064137 | 79 | 160 | 0.0 | 1.7 | 0.00 | 0.00 | 0.00 | 83 | 1017.1 |
| 20260902063637 | 79 | 160 | 0.0 | 1.7 | 0.00 | 0.00 | 0.00 | 83 | 1017.0 |
| 20260902063137 | 79 | 160 | 0.9 | 0.9 | 0.00 | 0.00 | 0.00 | 83 | 1017.2 |
| 20260902062637 | 79 | 162 | 0.9 | 3.5 | 0.00 | 0.00 | 0.00 | 83 | 1017.1 |
| 20260902062137 | 79 | 129 | 0.9 | 1.7 | 0.00 | 0.00 | 0.00 | 84 | 1017.2 |
| 20260902061637 | 79 | 107 | 0.0 | 1.7 | 0.00 | 0.00 | 0.00 | 83 | 1017.2 |
| 20260902061137 | 79 | 110 | 0.0 | 0.9 | 0.00 | 0.00 | 0.00 | 83 | 1017.1 |
| 20260902060637 | 79 | 105 | 0.0 | 1.7 | 0.00 | 0.00 | 0.00 | 83 | 1017.1 |
| 20260902060137 | 79 | 105 | 0.0 | 1.7 | 0.00 | 0.00 | 0.00 | 83 | 1017.1 |
| 20260902055637 | 79 | 120 | 0.9 | 1.7 | 0.00 | 0.00 | 0.00 | 83 | 1017.2 |
| 20260902055137 | 79 | 121 | 0.9 | 2.6 | 0.00 | 0.00 | 0.00 | 83 | 1017.2 |
| 20260902054637 | 79 | 81 | 0.0 | 1.7 | 0.00 | 0.00 | 0.00 | 83 | 1017.2 |
| 20260902054137 | 79 | 76 | 0.0 | 0.9 | 0.00 | 0.00 | 0.00 | 82 | 1017.3 |
| 20260902053637 | 79 | 98 | 0.0 | 0.9 | 0.00 | 0.00 | 0.00 | 82 | 1017.2 |
| 20260902053137 | 80 | 82 | 0.0 | 2.6 | 0.00 | 0.00 | 0.00 | 82 | 1017.2 |
| 20260902052637 | 80 | 81 | 0.0 | 0.9 | 0.00 | 0.00 | 0.00 | 81 | 1017.1 |
| 20260902052137 | 80 | 89 | 0.0 | 0.9 | 0.00 | 0.00 | 0.00 | 81 | 1017.0 |
| 20260902051637 | 80 | 89 | 0.0 | 1.7 | 0.00 | 0.00 | 0.00 | 80 | 1017.0 |
| 20260902051137 | 80 | 91 | 0.0 | 2.6 | 0.00 | 0.00 | 0.00 | 80 | 1017.1 |
| 20260902050637 | 81 | 119 | 0.0 | 0.9 | 0.00 | 0.00 | 0.00 | 80 | 1017.1 |
| 20260902050137 | 81 | 119 | 0.0 | 0.9 | 0.00 | 0.00 | 0.00 | 79 | 1017.1 |
| 20260902045637 | 81 | 116 | 0.9 | 1.7 | 0.00 | 0.00 | 0.00 | 79 | 1017.1 |
| 20260902045137 | 81 | 109 | 0.9 | 2.6 | 0.00 | 0.00 | 0.00 | 79 | 1017.1 |
| 20260902044637 | 81 | 100 | 0.9 | 3.5 | 0.00 | 0.00 | 0.00 | 78 | 1017.2 |
| 20260902044137 | 82 | 143 | 0.9 | 2.6 | 0.00 | 0.00 | 0.00 | 78 | 1017.1 |
| 20260902043637 | 82 | 153 | 0.9 | 3.5 | 0.00 | 0.00 | 0.00 | 78 | 1017.1 |
| 20260902043137 | 82 | 172 | 0.9 | 4.3 | 0.00 | 0.00 | 0.00 | 78 | 1017.1 |
| 20260902042637 | 82 | 164 | 0.0 | 2.6 | 0.00 | 0.00 | 0.00 | 78 | 1017.1 |
| 20260902042137 | 82 | 176 | 0.9 | 1.7 | 0.00 | 0.00 | 0.00 | 77 | 1017.1 |
| 20260902041637 | 82 | 134 | 0.9 | 3.5 | 0.00 | 0.00 | 0.00 | 77 | 1017.1 |
| 20260902041137 | 82 | 113 | 0.9 | 2.6 | 0.00 | 0.00 | 0.00 | 77 | 1017.0 |
| 20260902040637 | 82 | 154 | 0.9 | 4.3 | 0.00 | 0.00 | 0.00 | 77 | 1017.1 |
| 20260902040137 | 82 | 141 | 0.9 | 3.5 | 0.00 | 0.00 | 0.00 | 77 | 1017.2 |
| 20260902035637 | 83 | 174 | 0.9 | 2.6 | 0.00 | 0.00 | 0.00 | 78 | 1017.3 |
| 20260902035137 | 83 | 176 | 0.9 | 2.6 | 0.00 | 0.00 | 0.00 | 75 | 1017.3 |
| 20260902034637 | 84 | 158 | 0.9 | 2.6 | 0.00 | 0.00 | 0.00 | 75 | 1017.3 |
| 20260902034137 | 84 | 162 | 0.9 | 2.6 | 0.00 | 0.00 | 0.00 | 75 | 1017.3 |
| 20260902033637 | 84 | 141 | 0.9 | 0.9 | 0.00 | 0.00 | 0.00 | 74 | 1017.4 |
| 20260902033137 | 83 | 100 | 0.9 | 2.6 | 0.00 | 0.00 | 0.00 | 74 | 1017.4 |
| 20260902032637 | 83 | 174 | 0.9 | 2.6 | 0.00 | 0.00 | 0.00 | 74 | 1017.3 |
| 20260902032137 | 83 | 161 | 0.9 | 2.6 | 0.00 | 0.00 | 0.00 | 74 | 1017.3 |
| 20260902031637 | 83 | 158 | 0.9 | 1.7 | 0.00 | 0.00 | 0.00 | 74 | 1017.3 |
| 20260902031137 | 83 | 160 | 0.9 | 1.7 | 0.00 | 0.00 | 0.00 | 74 | 1017.4 |
| 20260902030637 | 83 | 133 | 0.0 | 2.6 | 0.00 | 0.00 | 0.00 | 74 | 1017.4 |
| 20260902030137 | 84 | 153 | 0.9 | 1.7 | 0.00 | 0.00 | 0.00 | 75 | 1017.4 |
| 20260902025637 | 83 | 153 | 0.9 | 2.6 | 0.00 | 0.00 | 0.00 | 75 | 1017.4 |
| 20260902025137 | 83 | 153 | 0.0 | 2.6 | 0.00 | 0.00 | 0.00 | 74 | 1017.4 |
| 20260902024637 | 84 | 108 | 0.0 | 0.0 | 0.00 | 0.00 | 0.00 | 74 | 1017.4 |
| 20260902024137 | 84 | 89 | 0.0 | 0.0 | 0.00 | 0.00 | 0.00 | 75 | 1017.3 |
| 20260902023637 | 85 | 89 | 0.0 | 0.0 | 0.00 | 0.00 | 0.00 | 71 | 1017.1 |
| 20260902023137 | 85 | 89 | 0.0 | 0.0 | 0.00 | 0.00 | 0.00 | 72 | 1017.1 |
| 20260902022637 | 86 | 89 | 0.0 | 0.0 | 0.00 | 0.00 | 0.00 | 70 | 1017.0 |
| 20260902022137 | 86 | 89 | 0.0 | 0.9 | 0.00 | 0.00 | 0.00 | 70 | 1016.9 |
| 20260902021637 | 86 | 89 | 0.0 | 1.7 | 0.00 | 0.00 | 0.00 | 69 | 1016.9 |
| 20260902021137 | 86 | 90 | 0.0 | 0.9 | 0.00 | 0.00 | 0.00 | 70 | 1017.0 |
| 20260902020637 | 86 | 89 | 0.0 | 1.7 | 0.00 | 0.00 | 0.00 | 70 | 1017.0 |
| 20260902020137 | 86 | 78 | 0.0 | 1.7 | 0.00 | 0.00 | 0.00 | 69 | 1016.8 |
| 20260902015637 | 85 | 78 | 0.0 | 2.6 | 0.00 | 0.00 | 0.00 | 70 | 1016.6 |
| 20260902015137 | 85 | 198 | 0.0 | 0.0 | 0.00 | 0.00 | 0.00 | 69 | 1016.5 |
| 20260902014637 | 86 | 203 | 0.0 | 0.0 | 0.00 | 0.00 | 0.00 | 69 | 1016.5 |
| 20260902014137 | 86 | 203 | 0.0 | 0.0 | 0.00 | 0.00 | 0.00 | 69 | 1016.5 |
| 20260902013637 | 86 | 203 | 0.0 | 0.0 | 0.00 | 0.00 | 0.00 | 70 | 1016.2 |
| 20260902013137 | 86 | 203 | 0.0 | 0.0 | 0.00 | 0.00 | 0.00 | 69 | 1016.2 |
| 20260902012637 | 86 | 203 | 0.0 | 0.0 | 0.00 | 0.00 | 0.00 | 69 | 1016.2 |
| 20260902012137 | 86 | 204 | 0.0 | 0.0 | 0.00 | 0.00 | 0.00 | 69 | 1016.2 |
| 20260902011637 | 86 | 204 | 0.0 | 0.0 | 0.00 | 0.00 | 0.00 | 70 | 1016.0 |
| 20260902011137 | 87 | 204 | 0.0 | 0.0 | 0.00 | 0.00 | 0.00 | 70 | 1016.0 |
| 20260902010637 | 87 | 204 | 0.0 | 0.0 | 0.00 | 0.00 | 0.00 | 68 | 1016.0 |
| 20260902010137 | 88 | 204 | 0.0 | 0.0 | 0.00 | 0.00 | 0.00 | 67 | 1016.1 |
| 20260902005637 | 88 | 204 | 0.0 | 0.0 | 0.00 | 0.00 | 0.00 | 66 | 1016.1 |
| 20260902005137 | 88 | 204 | 0.0 | 0.0 | 0.00 | 0.00 | 0.00 | 65 | 1016.1 |
| 20260902004637 | 89 | 204 | 0.0 | 0.0 | 0.00 | 0.00 | 0.00 | 64 | 1016.1 |
| 20260902004137 | 89 | 204 | 0.0 | 0.0 | 0.00 | 0.00 | 0.00 | 63 | 1016.1 |
| 20260902003637 | 90 | 204 | 0.0 | 0.0 | 0.00 | 0.00 | 0.00 | 62 | 1016.2 |
| 20260902003137 | 90 | 204 | 0.0 | 0.0 | 0.00 | 0.00 | 0.00 | 62 | 1016.1 |
| 20260902002637 | 91 | 204 | 0.0 | 0.0 | 0.00 | 0.00 | 0.00 | 60 | 1016.0 |
| 20260902002137 | 91 | 204 | 0.0 | 0.0 | 0.00 | 0.00 | 0.00 | 60 | 1015.9 |
| 20260902001637 | 91 | 204 | 0.0 | 0.9 | 0.00 | 0.00 | 0.00 | 59 | 1015.9 |
| 20260902001137 | 92 | 204 | 0.0 | 0.9 | 0.00 | 0.00 | 0.00 | 59 | 1015.9 |
| 20260902000637 | 92 | 204 | 0.9 | 1.7 | 0.00 | 0.00 | 0.00 | 58 | 1015.9 |
| 20260902000137 | 92 | 204 | 0.9 | 2.6 | 0.00 | 0.00 | 0.00 | 58 | 1015.9 |
| 20260901235637 | 93 | 214 | 1.7 | 2.6 | 0.00 | 0.00 | 0.00 | 58 | 1015.9 |
| 20260901235137 | 93 | 192 | 1.7 | 3.5 | 0.00 | 0.00 | 0.00 | 57 | 1016.0 |
| 20260901234637 | 93 | 193 | 1.7 | 3.5 | 0.00 | 0.00 | 0.00 | 56 | 1016.0 |
| 20260901234137 | 94 | 203 | 1.7 | 4.3 | 0.00 | 0.00 | 0.00 | 55 | 1016.1 |
| 20260901233637 | 94 | 213 | 1.7 | 5.2 | 0.00 | 0.00 | 0.00 | 55 | 1016.1 |
| 20260901233137 | 94 | 185 | 1.7 | 4.3 | 0.00 | 0.00 | 0.00 | 54 | 1016.1 |
| 20260901232638 | 94 | 238 | 1.7 | 3.5 | 0.00 | 0.00 | 0.00 | 55 | 1016.2 |
| 20260901232138 | 95 | 208 | 1.7 | 4.3 | 0.00 | 0.00 | 0.00 | 54 | 1016.2 |
| 20260901231638 | 95 | 186 | 1.7 | 4.3 | 0.00 | 0.00 | 0.00 | 53 | 1016.3 |
| 20260901231138 | 95 | 160 | 1.7 | 5.2 | 0.00 | 0.00 | 0.00 | 53 | 1016.3 |
| 20260901230638 | 95 | 160 | 1.7 | 3.5 | 0.00 | 0.00 | 0.00 | 53 | 1016.3 |
| 20260901230138 | 96 | 99 | 1.7 | 4.3 | 0.00 | 0.00 | 0.00 | 53 | 1016.2 |
| 20260901225638 | 96 | 152 | 1.7 | 3.5 | 0.00 | 0.00 | 0.00 | 53 | 1016.2 |
| 20260901225138 | 96 | 117 | 1.7 | 3.5 | 0.00 | 0.00 | 0.00 | 52 | 1016.2 |
| 20260901224638 | 97 | 178 | 1.7 | 1.7 | 0.00 | 0.00 | 0.00 | 52 | 1016.3 |
| 20260901224138 | 97 | 165 | 1.7 | 3.5 | 0.00 | 0.00 | 0.00 | 52 | 1016.3 |
| 20260901223638 | 97 | 170 | 1.7 | 4.3 | 0.00 | 0.00 | 0.00 | 52 | 1016.3 |
| 20260901223138 | 97 | 82 | 1.7 | 3.5 | 0.00 | 0.00 | 0.00 | 52 | 1016.3 |
| 20260901222638 | 97 | 172 | 1.7 | 5.2 | 0.00 | 0.00 | 0.00 | 51 | 1016.1 |
| 20260901222138 | 98 | 137 | 2.6 | 6.1 | 0.00 | 0.00 | 0.00 | 51 | 1016.2 |
| 20260901221638 | 98 | 138 | 1.7 | 3.5 | 0.00 | 0.00 | 0.00 | 50 | 1016.2 |
| 20260901221138 | 98 | 194 | 1.7 | 4.3 | 0.00 | 0.00 | 0.00 | 50 | 1016.1 |
| 20260901220638 | 98 | 129 | 2.6 | 4.3 | 0.00 | 0.00 | 0.00 | 50 | 1016.2 |